Location: *
(41.0833°N, 73.4167°W)
Time: 12:15:20
(UTC+00:00)

Cosmos 1850 Rocket - Pass Details

Date: 22 October 2019
Orbit: 754 x 786 km, 74.0° (Epoch: 18 November)

Event Time Altitude Azimuth Distance (km) Brightness Sun altitude
Rises 10:29:07 0° 219° (SW) 3,198 6.9 -8.9°
Reaches altitude 10° 10:31:37 10° 228° (SW) 2,275 6.1 -8.5°
Maximum altitude 10:36:24 38° 296° (WNW) 1,141 4.5 -7.6°
Drops below altitude 10° 10:41:14 10° 4° (N) 2,288 6.4 -6.7°
Sets 10:43:46 0° 13° (NNE) 3,219 7.3 -6.2°
